Location: Unspecified
(0.0000°N, 0.0000°E)
Time: 03:53:12
(UTC+00:00)

S-56A Canister/Altair - All Passes

Search period start: 24 February 2017 00:00
Search period end: 06 March 2017 00:00
Orbit: 639 x 2495 km, 38.9° (Epoch: 23 February)

Date Brightness Start Highest point End Pass type
(mag) Time Alt. Az. Time Alt. Az. Time Alt. Az.
24 Feb - 01:00:38 10° NW 01:14:36 83° NE 01:29:37 10° SE visible
24 Feb - 03:08:36 10° WNW 03:21:45 37° SW 03:34:02 10° SSE visible
24 Feb - 11:54:08 10° SSW 11:58:02 20° SE 12:01:26 10° E daylight
24 Feb - 13:57:37 10° WSW 14:01:49 34° NW 14:05:57 10° NNE daylight
24 Feb - 22:25:36 10° N 22:34:34 24° NE 22:45:10 10° E night (unlit)
25 Feb - 00:27:51 10° NW 00:41:15 75° NE 00:56:22 10° SE visible
25 Feb - 02:34:53 10° WNW 02:48:22 42° SW 03:01:28 10° SSE visible
25 Feb - 04:52:32 10° SW 04:56:46 12° SSW 05:00:48 10° SSW visible
25 Feb - 11:21:57 10° S 11:25:35 17° SSE 11:28:42 10° ESE daylight
25 Feb - 13:24:58 10° WSW 13:29:36 46° NW 13:33:53 10° NNE daylight
25 Feb - 21:53:48 10° N 22:01:25 20° NE 22:10:24 10° E night (unlit)
25 Feb - 23:55:12 10° NW 00:07:55 67° NE 00:22:58 10° ESE visible
26 Feb - 02:01:24 10° WNW 02:14:58 48° SW 02:28:45 10° SSE visible
26 Feb - 04:16:23 10° WSW 04:23:18 14° SSW 04:29:47 10° S visible
26 Feb - 10:49:47 10° S 10:53:02 14° SSE 10:55:52 10° ESE daylight
26 Feb - 12:52:18 10° WSW 12:57:23 63° NW 13:01:47 10° NE daylight
26 Feb - 21:22:23 10° N 21:28:19 16° NE 21:35:11 10° ENE visible
26 Feb - 23:22:41 10° NNW 23:34:40 59° NE 23:49:26 10° ESE night (unlit)
27 Feb - 01:28:06 10° WNW 01:41:33 54° SW 01:55:56 10° SSE visible
27 Feb - 03:41:08 10° WSW 03:49:48 17° SSW 03:58:01 10° S visible
27 Feb - 10:17:38 10° S 10:20:25 13° SSE 10:22:54 10° SE daylight
27 Feb - 12:19:38 10° SW 12:25:10 84° NW 12:29:39 10° NE daylight
27 Feb - 20:51:47 10° NNE 20:55:16 12° NE 20:59:04 10° ENE visible
27 Feb - 22:50:18 10° NNW 23:01:30 51° NE 23:15:43 10° ESE night (unlit)
28 Feb - 00:54:58 10° WNW 01:08:09 60° SW 01:22:57 10° SE visible
28 Feb - 03:06:26 10° WSW 03:16:17 20° SW 03:25:52 10° S visible
28 Feb - 09:45:32 10° S 09:47:45 11° SSE 09:49:44 10° SE daylight
28 Feb - 11:46:57 10° SW 11:52:55 75° SE 11:57:29 10° NE daylight
28 Feb - 22:18:03 10° NNW 22:28:24 44° NE 22:41:52 10° ESE night (unlit)
01 Mar - 00:22:01 10° WNW 00:34:46 67° SW 00:49:53 10° SE visible
01 Mar - 02:32:06 10° W 02:42:46 24° SW 02:53:29 10° SSE visible
01 Mar - 09:13:40 10° SSE 09:14:58 10° SSE 09:16:11 10° SE daylight
01 Mar - 11:14:14 10° SW 11:20:36 59° SE 11:25:18 10° ENE daylight
01 Mar - 13:22:08 10° WNW 13:24:04 12° NW 13:25:54 10° NNW daylight
01 Mar - 21:45:56 10° NNW 21:55:23 37° NE 22:07:50 10° ESE visible
01 Mar - 23:49:12 10° NW 00:01:26 75° SW 00:16:40 10° SE visible
02 Mar - 01:58:05 10° W 02:09:16 27° SW 02:20:54 10° SSE visible
02 Mar - 10:41:29 10° SW 10:48:12 48° SE 10:53:03 10° ENE daylight
02 Mar - 12:48:24 10° W 12:51:45 17° NW 12:54:45 10° N daylight
02 Mar - 21:13:57 10° NNW 21:22:27 31° NE 21:33:37 10° E visible
02 Mar - 23:16:32 10° NW 23:28:10 83° SW 23:43:20 10° SE night (unlit)
03 Mar - 01:24:22 10° W 01:35:46 30° SW 01:48:10 10° SSE visible
03 Mar - 10:08:40 10° SSW 10:15:45 40° SE 10:20:46 10° ENE daylight
03 Mar - 12:15:01 10° W 12:19:29 23° NW 12:23:14 10° N daylight
03 Mar - 20:42:09 10° N 20:49:35 25° NE 20:59:13 10° E visible
03 Mar - 22:43:59 10° NW 22:54:59 88° NE 23:09:55 10° SE night (unlit)
04 Mar - 00:50:52 10° W 01:02:18 34° SW 01:15:18 10° SSE visible
04 Mar - 03:09:47 10° SSW 03:12:12 10° SSW 03:14:37 10° SSW visible
04 Mar - 09:35:50 10° SSW 09:43:11 35° SE 09:48:25 10° E daylight
04 Mar - 11:41:44 10° WSW 11:47:14 31° NW 11:51:31 10° NNE daylight
04 Mar - 20:10:36 10° N 20:16:47 20° NE 20:24:35 10° E visible
04 Mar - 22:11:34 10° NW 22:21:53 78° NE 22:36:23 10° SE visible
05 Mar - 00:17:36 10° W 00:28:53 38° SW 00:42:19 10° SSE visible
05 Mar - 02:33:15 10° SW 02:38:29 12° SSW 02:43:44 10° S visible
05 Mar - 09:02:56 10° SSW 09:10:33 31° SSE 09:16:00 10° E daylight
05 Mar - 11:08:30 10° WSW 11:14:58 42° NW 11:19:43 10° NNE daylight
05 Mar - 19:39:25 10° NNE 19:44:03 15° NE 19:49:33 10° ENE visible
05 Mar - 21:39:16 10° NW 21:48:54 68° NE 22:02:45 10° SE visible
